Location: Wald
(31.7579°N, 86.6655°W)
Time: 21:13:14
(UTC+00:00)

Cosmos 2278 - Pass Details

Date: 14 July 2020
Orbit: 838 x 854 km, 71.1° (Epoch: 13 August)

Event Time Altitude Azimuth Distance (km) Brightness Sun altitude
Rises 08:52:11 0° 338° (NNW) 3,426 7.2 -21.5°
Reaches altitude 10° 08:54:39 10° 337° (NNW) 2,487 6.4 -21.1°
Maximum altitude 09:00:21 77° 252° (WSW) 877 3.6 -20.3°
Drops below altitude 10° 09:06:01 10° 167° (SSE) 2,469 5.8 -19.4°
Enters shadow 09:06:08 10° 167° (SSE) 2,511 5.9 -19.4°
